{"data":{"norad_id":58018,"epoch":"2026-05-25T04:46:52.347072Z","epoch_age_seconds":61295,"freshness":"FRESH","line1":"1 58018U 23155C   26145.19921698  .00016745  00000+0  36499-3 0  9997","line2":"2 58018  97.5538 233.3648 0002332 146.1455 213.9942 15.44329127145408","mean_motion":15.44329127,"eccentricity":0.0002332,"inclination_deg":97.5538,"raan_deg":233.3648,"arg_perigee_deg":146.1455,"mean_anomaly_deg":213.9942,"bstar":0.00036499,"rev_number":14540,"period_min":93.244372253558,"perigee_km":431.76157447038,"apogee_km":434.93845201336,"semimajor_km":6811.4870132419,"source":"CELESTRAK","updated_at":"2026-05-25T13:38:00.425559Z"}}